Fargo, ND

1:55 PM CDT on September 17, 2019 (GMT -0500)
Hector International

Weather History for KFAR - August, 2019

Change the Weather History Date:

Monday, August 19, 2019

  Actual Average Record
Temperature  
Mean Temperature 70 °F 69 °F  
Max Temperature 86 °F 81 °F 105 °F (1976)
Min Temperature 55 °F 57 °F 39 °F (1978)
Degree Days  
Heating Degree Days 0 1  
Month to date heating degree days 10 15  
Since 1 June heating degree days 74 104  
Since 1 July heating degree days 16 31  
Cooling Degree Days 6 5  
Month to date cooling degree days 84 117  
Year to date cooling degree days 462 457  
Since 1 June cooling degree days 452 426  
Growing Degree Days 20 (Base 50)    
Moisture  
Dew Point 61 °F    
Average Humidity 71    
Maximum Humidity 93    
Minimum Humidity 45    
Precipitation  
Precipitation 0.00 in 0.10 in 3.41 in (1935)
Month to date precipitation 2.24 1.43  
Year to date precipitation 18.58 14.90  
Snow  
Snow 0.00 in 0.00 in 0.00 in ()
Month to date snowfall 0.0 0.0  
Since 1 June snowfall 0.0 0.0  
Since 1 July snowfall 0.0 0.0  
Snow Depth 0.00 in    
Sea Level Pressure  
Sea Level Pressure 29.87 in    
Wind  
Wind Speed 9 mph ()    
Max Wind Speed 21 mph    
Max Gust Speed 25 mph    
Visibility 10.0 miles    
Events      
T = Trace of Precipitation, MM = Missing Value Source: Averaged Metar Reports

Daily Weather History Graph

Daily Weather History Graph

Search for Another Location

Airport or City:

Astronomy

Aug. 19, 2019 Rise Set
Actual Time 6:29 AM CDT 8:31 PM CDT
Civil Twilight 5:56 AM CDT 9:03 PM CDT
Nautical Twilight 5:16 AM CDT 9:44 PM CDT
Astronomical Twilight 4:30 AM CDT 10:29 PM CDT
Moon 10:38 PM CDT (8/19) 10:24 AM CDT (8/19)
Length of Visible Light 15h 07m
Length of Day
14h 01m
Waning Gibbous, 85% of the Moon is Illuminated
Aug 19
Waning Gibbous
Aug 23
Last Quarter
Aug 30
New
Sep 5
First Quarter
Sep 13
Full

Hourly Weather History & Observations

Time (CDT) Temp. Heat Index Dew Point Humidity Pressure Visibility Wind Dir Wind Speed Gust Speed Precip Events Conditions
12:53 AM 55.9 °F - 51.1 °F 84% 29.88 in - South 9.2 mph - N/A   Clear
1:53 AM 57.0 °F - 51.1 °F 81% 29.88 in 10.0 mi South 10.4 mph - N/A   Clear
2:53 AM 57.0 °F - 51.1 °F 81% 29.87 in 10.0 mi South 10.4 mph - N/A   Clear
3:53 AM 57.0 °F - 52.0 °F 83% 29.87 in - South 10.4 mph - N/A   Clear
4:53 AM 57.0 °F - 52.0 °F 83% 29.87 in - South 10.4 mph - N/A   Clear
5:53 AM 57.0 °F - 53.1 °F 87% 29.87 in - South 9.2 mph - N/A   Clear
6:53 AM 55.9 °F - 53.1 °F 90% 29.88 in 10.0 mi South 9.2 mph - N/A   Clear
7:53 AM 57.9 °F - 54.0 °F 87% 29.89 in 10.0 mi South 9.2 mph - N/A   Clear
8:53 AM 62.1 °F - 55.9 °F 80% 29.89 in 10.0 mi SSW 15.0 mph - N/A   Clear
9:53 AM 66.9 °F - 59.0 °F 76% 29.89 in 10.0 mi SSW 15.0 mph - N/A   Clear
10:53 AM 73.0 °F - 62.1 °F 68% 29.88 in 10.0 mi SSW 17.3 mph 24.2 mph N/A   Clear
11:31 AM 75.9 °F - 64.0 °F 67% 29.88 in 10.0 mi SSW 17.3 mph - N/A   Clear
11:53 AM 78.1 °F - 64.0 °F 62% 29.88 in 10.0 mi SW 9.2 mph - N/A   Clear
12:53 PM 79.0 °F - 64.9 °F 62% 29.88 in 10.0 mi WSW 8.1 mph - N/A   Partly Cloudy
1:53 PM 80.1 °F 81.9 °F 64.9 °F 60% 29.88 in 10.0 mi West 9.2 mph - N/A   Clear
2:53 PM 82.9 °F 84.6 °F 64.9 °F 54% 29.86 in 10.0 mi SW 6.9 mph - N/A   Clear
3:53 PM 84.9 °F 86.6 °F 64.9 °F 51% 29.85 in 10.0 mi West 4.6 mph - N/A   Clear
4:53 PM 84.9 °F 86.6 °F 64.9 °F 51% 29.84 in 10.0 mi Variable 5.8 mph - N/A   Clear
5:53 PM 86.0 °F 86.8 °F 63.0 °F 46% 29.84 in 10.0 mi Calm Calm - N/A   Clear
6:53 PM 82.9 °F 84.6 °F 64.9 °F 54% 29.83 in 10.0 mi South 6.9 mph - N/A   Scattered Clouds
7:53 PM 79.0 °F - 66.9 °F 66% 29.83 in 10.0 mi South 6.9 mph - N/A   Clear
8:53 PM 78.1 °F - 68.0 °F 71% 29.84 in 10.0 mi SSE 5.8 mph - N/A   Partly Cloudy
9:53 PM 77.0 °F - 69.1 °F 76% 29.85 in 10.0 mi SSE 9.2 mph - N/A   Clear
10:53 PM 73.9 °F - 68.0 °F 82% 29.85 in 10.0 mi SSE 11.5 mph - N/A   Clear
11:53 PM 73.0 °F - 66.9 °F 81% 29.85 in 10.0 mi South 13.8 mph - N/A   Partly Cloudy